Rechercher aéroport 
image banner adimage banner adimage banner ad
image banner ad

2CL6 - St John's Rgnl Medical Center

Situé à Oxnard, United States

ICAO - 2CL6, IATA -

Données fournies par Airmate  

Information générale

Coordonnées: N34°12'60" W119°9'26"
Élévation : 76 feet MSL.
Variation magnétique : 14° East
Voir autres Aéroports à California

Données opérationnelles

Special qualification required
Heure actuelle UTC:
Heure actuelle locale:
Météo à : KOXR - Oxnard ( 5 km )
METAR: KOXR 292010Z 29015KT 10SM SCT007 21/15 A2992 RMK AO2 T02060150 $
TAF: KOXR 291830Z 2919/3018 29013G19KT P6SM OVC006 FM292000 28014KT P6SM SCT005 FM300400 28006KT P6SM SKC FM300700 VRB03KT 3SM BR OVC005
Voir NOTAMs / SUP AIP / TFR affectant cet aéroport [VIEW]
Fréquences de communication: [VIEW]

Pistes:

Coordonnées de l'aéroport

Adresse: Oxnard United States

Vue satellite de 2CL6